Location: Rockhill
(33.2040°N, 96.8025°W)
Time: 02:50:07
(UTC+00:00)

Daily predictions for brighter satellites

Satellite Brightness Start Highest point End
(mag) Time Altitude Azimuth Time Altitude Azimuth Time Altitude Azimuth
USA 234 3.7 01:46:10 10° SSE 01:52:38 62° SW 01:59:08 10° NW
Cosmos 1743 Rocket 3.7 01:49:38 10° N 01:54:06 83° W 01:58:30 10° S
COSMOS 2487 2.3 01:52:33 10° NNW 01:55:39 74° WSW 01:58:44 10° S
Cosmos 1812 3.5 01:52:36 10° SSW 01:56:20 56° W 02:00:05 10° N
Gbstr 26 Del rocket 4.5 01:49:45 10° NW 01:57:11 58° NE 02:03:19 10° ESE
Cosmos 1805 Rocket 3.6 01:54:24 10° N 01:58:50 74° E 02:03:15 10° S
Cosmos 44 3.5 01:55:51 10° NNW 02:00:00 44° ENE 02:04:09 10° SE
Cosmos 1697 Rocket 3.0 01:58:32 10° S 02:03:54 47° ESE 02:09:18 10° NNE
Okean O Rocket 3.7 02:00:49 10° SSW 02:04:30 27° W 02:08:11 10° NW
SL-27 R/B 4.0 02:01:34 10° NW 02:04:35 33° WSW 02:07:32 10° SSW
YAOGAN 1 4.4 02:02:05 10° SSW 02:05:54 31° W 02:09:46 10° NW
Cosmos 2360 4.5 02:01:17 10° S 02:06:40 46° ESE 02:12:04 10° NE
Cosmos 1633 Rocket 4.2 02:03:10 10° NNE 02:06:50 26° ENE 02:10:21 11° SE
OAO 3 Rocket 3.5 02:04:11 10° W 02:09:05 71° N 02:14:01 10° E
H-2A R/B 2.6 02:05:19 10° SSE 02:09:41 67° ENE 02:13:58 10° N
CZ-4 R/B 3.2 02:06:50 10° SSW 02:10:24 32° W 02:14:02 10° NNW
CSL-04 Debris 4.2 02:05:50 10° SSE 02:11:16 86° ENE 02:16:42 10° NNW
ATLAS CENTAUR Rocket 4.0 01:53:56 10° SW 02:13:39 36° S 02:18:21 12° ESE
Cosmos 1570 Rocket 4.4 02:09:40 10° N 02:14:44 48° ENE 02:19:30 11° SE
Tsikada Rocket 4.0 02:08:34 10° N 02:14:52 77° E 02:21:03 10° S
Sich 1 3.0 02:11:24 10° N 02:15:46 88° W 02:20:04 10° S
Cosmos 1486 Rocket 4.3 02:12:07 10° S 02:17:10 47° ESE 02:22:14 10° NNE
Cosmos 2297 Rocket 2.6 02:13:28 10° N 02:18:54 47° ENE 02:23:35 14° SE
Resurs 01 Rocket 3.0 02:16:11 13° ESE 02:19:00 22° ENE 02:22:25 10° NNE
Cosmos 1814 Rocket 3.9 02:15:09 10° NNW 02:20:17 76° ENE 02:25:25 10° SSE
SJ-6B 2.7 02:18:44 10° S 02:22:35 86° WSW 02:26:23 10° NNW
Meteor 1-5 Rocket 4.1 02:18:52 10° N 02:24:14 89° W 02:29:30 10° S
Cosmos 1515 Rocket 4.4 02:21:56 12° SSE 02:25:19 30° E 02:29:09 10° NNE
Cosmos 1315 Rocket 3.1 02:21:55 10° N 02:25:52 49° E 02:29:00 15° SSE
USA 129 3.1 02:28:08 14° NNE 02:28:08 14° NNE 02:28:25 10° NNE
Meteor 1-10 Rocket 4.1 02:23:35 10° S 02:29:06 75° E 02:34:40 10° NNE
Okean-O 3.2 02:26:15 10° S 02:30:35 57° W 02:34:57 10° NNW
Cosmos 1340 3.5 02:28:29 17° SE 02:30:36 29° E 02:33:53 10° NNE
Cosmos 2098 Rocket 4.5 02:29:26 10° NW 02:31:52 23° W 02:34:13 10° SW
Cosmos 389 Rocket 4.5 02:30:49 10° NE 02:32:36 13° ENE 02:33:02 13° E
Cosmos 1184 Rocket 3.9 02:33:05 21° E 02:33:18 21° E 02:35:40 10° NE
Cosmos 405 3.9 02:30:19 10° NNE 02:33:19 29° ENE 02:34:34 22° ESE
Meteor 1-14 Rocket 4.5 02:30:57 10° NNW 02:36:49 74° W 02:42:31 10° S
Meteor 1-27 Rocket 3.9 02:33:34 10° S 02:39:06 55° E 02:44:48 10° NNE
IGS 5A 3.5 02:38:00 12° S 02:41:54 79° W 02:46:03 10° NNW
ATLAS 2AS CENTAUR R/B 3.2 02:35:38 10° S 02:43:02 48° ESE 02:50:21 10° NE
Cosmos 1743 3.9 02:41:27 10° NNE 02:44:33 24° ENE 02:45:13 22° E
Cosmos 1503 Rocket 4.2 02:41:16 10° S 02:46:18 50° ESE 02:51:25 10° NNE
PSLV R/B 3.9 02:42:36 10° N 02:46:39 83° WNW 02:50:39 10° SSW
BREEZE-M DEB (TANK) 3.3 02:44:23 10° NW 02:47:53 84° SW 02:51:14 23° SE
CZ-4B R/B 1.2 02:48:08 10° N 02:51:17 83° WNW 02:53:42 16° SSW
Cosmos 2278 4.3 02:48:35 20° SSE 02:51:36 33° ESE 02:56:37 10° NE
MetOp-A 4.3 02:48:23 10° S 02:52:22 45° W 02:56:09 10° NNW
COBE Rocket 4.3 02:47:24 10° S 02:52:30 66° W 02:57:30 10° NNW
Milstar 3 Cent rocket 4.4 02:33:40 10° W 02:52:52 52° SSW 02:59:33 22° SE
SPOT 1/Viking Rocket 3.8 02:53:29 26° SE 02:56:12 51° ENE 03:01:12 10° N
Cosmos 2219 3.3 02:51:25 10° NNW 02:56:58 58° ENE 02:59:50 28° SE
Meteor 1-11 Rocket 3.8 02:53:24 10° N 02:59:21 69° E 03:03:02 24° SSE
SWIFT 4.4 02:59:52 10° SSW 03:01:05 13° SSW 03:01:05 13° SSW
H-2A R/B 3.4 02:58:42 10° N 03:02:30 38° WNW 03:06:20 10° SW
Cosmos 1464 Rocket 3.9 02:57:25 12° S 03:03:17 74° E 03:09:26 10° N
Cosmos 2263 Rocket 3.9 03:05:21 10° NNE 03:08:54 17° ENE 03:10:33 15° ENE
Okean 1 3.8 03:09:21 39° E 03:09:25 39° E 03:13:10 10° NNE
RESURS DK-1 2.5 03:09:41 45° SE 03:10:09 48° ESE 03:14:07 10° NE
Aureole 1 Rocket 3.8 03:07:00 10° SW 03:10:20 38° WNW 03:13:15 10° N
Cosmos 1536 2.7 03:08:44 10° N 03:12:45 72° E 03:13:43 49° SSE
Cosmos 2344 3.7 03:05:57 10° SW 03:13:51 72° WNW 03:21:15 10° NNE
NOSS 3-2 (C) 4.4 03:09:56 10° NW 03:17:54 66° WSW 03:23:43 23° S
Ariane Rocket 2.9 03:18:14 37° SSE 03:20:19 84° ENE 03:25:25 10° NNW
SL-4 R/B 3.1 03:16:59 10° NNW 03:21:09 36° NE 03:22:14 31° ENE
IRS-1A Rocket 4.4 03:21:20 27° S 03:24:30 71° WSW 03:30:14 10° NNW
Cosmos 2227 Rocket 2.4 03:20:21 10° NNW 03:25:59 68° WSW 03:28:30 33° S
CENTAUR R/B 4.3 03:18:19 10° NW 03:26:14 39° WSW 03:33:20 14° S
Nadezhda 4 Rocket 4.1 03:20:13 10° N 03:26:19 58° E 03:28:17 41° SE
CZ-2C R/B 4.4 03:23:07 10° NNE 03:27:10 38° E 03:27:10 38° E
Cosmos 1980 Rocket 2.6 03:22:57 10° SSW 03:28:30 63° WNW 03:34:07 10° NNE
ASTRO E2 3.3 03:29:26 10° W 03:32:28 42° SW 03:32:28 42° SW
Cosmos 1933 Rocket 3.5 03:29:16 10° N 03:33:45 88° W 03:34:30 62° S
SPOT 5 3.6 03:34:22 39° E 03:35:02 41° ENE 03:39:54 10° N
Cosmos 2322 Rocket 3.8 03:38:51 18° ENE 03:38:51 18° ENE 03:40:58 10° NE
Meteor 1-19 Rocket 4.0 03:36:58 38° S 03:39:08 90° WNW 03:44:34 10° N
Terra 3.0 03:40:18 28° ENE 03:40:18 28° ENE 03:44:08 10° NNE
Meteor 2-4 Rocket 4.1 03:40:03 45° ESE 03:40:23 46° E 03:45:48 10° NNE
Helios 1A Rocket 3.4 03:41:33 48° NE 03:41:33 48° NE 03:44:56 10° N
SJ 16-02 1.6 03:39:52 37° SW 03:41:26 64° WNW 03:45:47 10° N
Timation 2 Rocket 4.2 03:38:52 10° NNW 03:45:28 63° ENE 03:47:15 47° ESE
SPOT 3 Rocket 3.5 03:49:44 61° S 03:50:38 81° WSW 03:55:48 10° NNW
Cosmos 2026 Rocket 4.4 03:45:04 10° N 03:50:54 43° E 03:51:24 42° E
OAO 3 Rocket 3.1 03:47:48 10° WNW 03:52:45 89° SSW 03:52:53 86° ESE
Cosmos 1777 Rocket 4.1 03:51:22 40° SSW 03:53:14 74° WNW 03:58:28 10° NNE
Spot 2 Rocket 3.4 03:53:56 66° E 03:54:05 66° ENE 03:59:05 10° N
Resurs 01 Rocket 3.4 03:53:43 20° SW 03:55:19 25° W 03:58:58 10° NW
Cosmos 2297 Rocket 4.3 03:58:40 10° WNW 04:02:29 19° W 04:05:25 13° SW
Cosmos 773 Rocket 3.9 03:59:01 10° NNW 04:04:05 72° ENE 04:04:05 72° ENE
Meteor 2-8 Rocket 4.3 04:04:46 64° ESE 04:05:07 66° E 04:11:09 10° NNE
Cosmos 1627 Rocket 4.4 04:04:21 10° N 04:10:34 66° E 04:10:57 64° ESE
USA 215 3.5 04:05:40 10° NE 04:10:52 48° E 04:10:52 48° E
Meteor 2-9 Rocket 4.2 04:07:08 10° NNW 04:12:49 71° W 04:13:24 65° SW
Cosmos 2228 Rocket 4.0 04:14:40 43° W 04:15:00 44° W 04:19:22 10° N
SL-16 R/B 2.1 04:15:42 72° ENE 04:15:42 72° ENE 04:20:55 10° NNE
Cosmos 921 Rocket 4.0 04:13:54 10° NNW 04:17:43 43° W 04:17:43 43° W
Cosmos 1346 Rocket 4.4 04:21:06 32° N 04:21:06 32° N 04:23:19 10° N
Meteor 2-15 4.2 04:21:02 82° ESE 04:21:10 83° E 04:27:14 10° N
USA 81 4.1 04:22:41 74° N 04:22:41 74° N 04:27:28 10° N
Cosmos 1869 Rocket 4.5 04:19:16 10° NNW 04:22:58 46° WNW 04:22:58 46° WNW
Meteor 2-21 Rocket 4.4 04:19:18 10° N 04:25:24 76° W 04:25:53 72° SW
Cosmos 2279 Rocket 3.9 04:28:04 69° ENE 04:28:04 69° ENE 04:33:54 10° N
ERS-1 Rocket 3.4 04:32:44 55° WNW 04:32:44 55° WNW 04:37:10 10° NNW
Cosmos 158 Rocket 4.4 04:27:10 10° NNW 04:31:26 59° N 04:31:26 59° N
ATLAS 2AS CENTAUR R/B 4.4 04:27:08 10° WSW 04:34:08 35° NW 04:41:02 10° NNE
Cosmos 44 Rocket 4.4 04:31:16 10° NNW 04:34:29 36° NNE 04:34:29 36° NNE
ARIANE 5 R/B 3.8 04:38:20 42° NNW 04:38:20 42° NNW 04:41:21 10° NNW
Meteor 2-16 Rocket 4.5 04:31:49 10° N 04:37:56 72° W 04:38:04 71° WSW
Cosmos 2360 Rocket 3.3 04:43:37 33° NE 04:43:37 33° NE 04:46:50 10° NNE
Cosmos 2263 Rocket 2.8 04:47:43 10° NNW 04:52:15 50° WNW 04:52:15 50° WNW
ATLAS CENTAUR R/B 4.4 05:00:52 10° NNE 05:01:56 11° NE 05:01:57 11° NE
ATLAS 3B R/B 3.0 05:00:36 10° NNW 05:08:01 63° ENE 05:08:17 62° ENE
Terra 3.9 05:19:10 20° WNW 05:19:10 20° WNW 05:21:32 10° NW
Cosmos 2322 Rocket 3.3 05:20:35 39° WNW 05:20:35 39° WNW 05:25:38 10° N
Cosmos 2333 Rocket 3.5 05:25:37 33° NNE 05:25:37 33° NNE 05:28:42 10° NNE
Cosmos 1844 Rocket 3.8 05:27:45 10° NNW 05:31:29 40° NNE 05:31:29 40° NNE
Cosmos 1655 Rocket 4.5 05:29:57 10° N 05:34:47 57° N 05:34:47 57° N
Cosmos 2219 Rocket 3.5 05:47:59 33° NNE 05:47:59 33° NNE 05:51:01 10° NNE
USA 215 4.4 05:48:54 10° NNE 05:54:50 38° NW 05:58:09 23° W
ADEOS Rocket 3.9 06:03:06 39° NNE 06:03:06 39° NNE 06:07:03 10° N
Cosmos 2237 Rocket 4.2 06:16:53 20° ENE 06:16:53 20° ENE 06:18:59 10° NE
COSMOS 2428 3.9 06:18:12 38° NNE 06:18:12 38° NNE 06:21:37 10° NNE
Cosmos 2360 Rocket 4.3 06:25:20 18° WNW 06:25:39 18° WNW 06:29:23 10° NNW
USA 267 4.3 06:24:07 35° ENE 06:25:45 40° NE 06:31:45 10° NNW
ATLAS CENTAUR R/B 4.1 06:36:40 10° NNW 06:37:56 18° NNW 06:37:56 18° NNW
Cosmos 2278 Rocket 3.6 06:46:24 10° N 06:50:48 32° NE 06:50:48 32° NE
NOSS 3-1 (A) 4.5 06:53:01 10° NNW 07:00:51 61° ENE 07:02:42 52° ESE
SL-16 R/B 4.1 07:03:37 21° ENE 07:03:37 21° ENE 07:06:16 10° NE
Cosmos 2333 Rocket 4.5 07:07:34 14° WNW 07:07:51 14° NW 07:10:50 10° NNW
NOSS 3-1 (C) 4.2 07:00:32 10° NNW 07:07:55 73° WNW 07:07:55 73° WNW
CZ-4C R/B 3.0 07:20:39 10° NNW 07:28:18 81° W 07:28:18 81° W
Lacrosse 5 3.2 07:35:14 36° NE 07:35:14 36° NE 07:38:13 10° NE
Lacrosse 5 rocket 4.0 07:43:58 16° NE 07:43:58 16° NE 07:44:50 10° NE
Meteor 2-5 Rocket 4.2 07:45:31 59° NE 07:45:31 59° NE 07:50:12 10° NNE
CZ-2D R/B 2.9 07:43:35 10° NNE 07:47:44 48° NE 07:47:44 48° NE
Cosmos 2237 Rocket 3.6 07:58:41 29° NW 07:58:41 29° NW 08:02:57 10° N
BREEZE-M DEB (TANK) 4.1 08:01:26 82° SSE 08:01:26 82° SSE 08:16:09 10° SE
USA 267 4.2 08:11:25 32° WNW 08:11:25 32° WNW 08:14:55 10° NW
SL-16 R/B 2.8 08:15:02 50° SE 08:16:28 63° ENE 08:22:37 10° N
Resurs 1-4 Rocket 2.4 08:11:49 10° N 08:16:15 59° NNW 08:16:15 59° NNW
Cosmos 292 Rocket 4.4 08:22:07 53° ENE 08:22:07 53° ENE 08:26:07 10° NNE
Cosmos 1943 Rocket 2.9 08:17:33 10° N 08:23:06 51° ENE 08:25:08 35° ESE
USA 229 DEB 4.1 08:17:38 10° NW 08:24:30 53° W 08:24:30 53° W
USA 229 4.1 08:17:44 10° NW 08:24:37 53° WSW 08:24:37 53° WSW
Cosmos 2074 Rocket 3.9 08:25:15 10° N 08:31:34 85° E 08:32:36 65° SSE
ADEOS II 2.0 08:27:10 10° NNE 08:32:23 82° E 08:32:23 82° E
IDEFIX/ARIANE 42P 2.7 08:27:37 10° NNE 08:32:52 67° ESE 08:33:04 66° ESE
Cosmos 2278 Rocket 4.0 08:30:37 10° NW 08:32:35 19° WNW 08:32:35 19° WNW
Cosmos 1536 Rocket 4.1 08:36:38 55° N 08:36:38 55° N 08:40:06 10° N
NOSS 3-3 (A) 4.0 08:35:52 53° SE 08:36:17 54° ESE 08:42:07 10° NE
NOSS 3-3 (C) 4.0 08:35:58 52° SE 08:36:24 54° ESE 08:42:12 10° NE
OAO 2 Rocket 4.2 08:38:02 38° ESE 08:38:02 38° ESE 08:41:26 10° E
DNEPR-1 R/B 4.4 08:45:34 40° E 08:45:34 40° E 08:49:17 10° NE
SL-16 R/B 3.0 08:45:29 37° WNW 08:45:38 37° WNW 08:50:51 10° N
CZ-3A R/B 4.3 08:46:12 22° SE 08:46:12 22° SE 08:53:49 10° E
NPP 4.2 08:41:35 10° N 08:46:35 44° WNW 08:46:35 44° WNW
Cosmos 2184 Rocket 3.8 08:40:32 10° N 08:46:45 75° W 08:47:43 63° SSW
FALCON 9 R/B 4.1 08:15:40 10° WNW 08:47:01 68° SSW 08:54:29 10° SE
Cosmos 1455 3.8 08:44:29 10° N 08:46:22 28° NNW 08:46:22 28° NNW
IRS-1D 4.1 08:43:22 10° NNE 08:48:34 54° E 08:49:47 44° SE
Cosmos 2369 Rocket 3.9 08:44:26 10° N 08:49:20 30° ENE 08:54:12 10° ESE
UNK 4.0 08:52:25 57° NW 08:52:25 57° NW 08:56:16 10° NNW
Cosmos 1271 Rocket 3.3 08:49:21 10° N 08:52:49 54° ENE 08:52:49 54° ENE
YAOGAN 11 4.4 08:54:01 57° NW 08:54:01 57° NW 08:57:44 10° NNW
COSMOS 2455 3.1 08:57:22 47° W 08:58:22 52° WNW 09:04:14 10° NNE
COSMOS 2441 4.4 08:54:05 10° NNE 08:58:56 70° ESE 08:59:45 57° SSE
MOS 1 Rocket 3.5 09:00:29 49° NW 09:00:29 49° NW 09:03:51 10° NNW
Cosmos 1603 3.8 09:07:22 45° S 09:09:06 72° ESE 09:14:44 10° NNE
Helios 1B rocket 3.4 09:08:55 10° NNE 09:12:46 41° E 09:14:02 31° SE
Cosmos 1328 4.0 09:14:10 56° SE 09:14:44 65° E 09:18:40 10° NNE
ALOS 4.0 09:11:00 10° NE 09:14:57 27° E 09:18:22 12° SSE
Nadezhda 1 Rocket 4.4 09:13:36 40° WSW 09:14:58 46° W 09:21:02 10° N
Lacrosse 5 4.1 09:14:25 12° WNW 09:16:44 15° NW 09:19:40 10° N
MSX 3.9 09:13:10 10° N 09:18:51 60° WNW 09:20:38 42° SW
Helios 1A 3.0 09:19:40 56° W 09:19:40 56° W 09:23:41 10° NNW
Lacrosse 5 rocket 3.7 09:19:29 12° NW 09:20:26 12° NW 09:22:11 10° N
CZ-2C R/B 3.9 09:16:13 10° NE 09:20:44 32° E 09:24:40 12° SSE
CZ-2D R/B 4.0 09:25:30 10° NNW 09:28:18 15° WNW 09:29:03 14° WNW
Lacrosse 4 Rocket 3.3 09:27:30 15° SSE 09:30:04 25° ESE 09:33:33 10° NE
Cosmos 1371 Rocket 4.1 09:30:20 29° S 09:32:59 70° ESE 09:38:08 10° NNE
Cosmos 1892 Rocket 3.5 09:33:24 36° S 09:35:12 90° W 09:39:41 10° N
Cosmos 407 Rocket 4.5 09:31:30 10° N 09:36:37 48° ENE 09:41:39 10° SE
GPS 2-04 Rocket1 2.2 09:39:12 63° WSW 09:39:42 86° SSE 09:43:13 10° ENE
Cosmos 1825 4.5 09:37:15 10° SE 09:40:07 21° E 09:43:00 10° NE
Cosmos 1943 3.5 09:37:59 33° SW 09:40:17 52° WNW 09:45:50 10° N
Meteor 2-1 Rocket 4.1 09:38:43 10° N 09:44:27 82° W 09:50:02 10° S
Cosmos 1726 Rocket 3.5 09:40:44 10° N 09:45:09 88° E 09:48:44 15° S
ATLAS 2A CENTAUR R/B 3.9 09:33:43 20° WSW 09:46:37 57° S 09:53:32 10° ESE
Cosmos 1140 Rocket 3.9 09:41:35 10° N 09:46:48 65° ENE 09:51:58 10° SSE
Cosmos 2366 rocket 4.1 09:42:29 10° N 09:48:40 75° E 09:54:51 10° S
Cosmos 2341 Rocket 4.0 09:43:44 10° N 09:50:06 72° W 09:56:26 10° S
SeaSat 1 3.3 09:47:09 10° NE 09:51:53 45° ESE 09:56:11 12° S
[s.n.52708] 3.8 09:53:18 29° WNW 09:53:42 31° NW 09:56:16 10° NNE
[s.n.52707] 3.8 09:53:24 29° WNW 09:53:49 30° NW 09:56:23 10° NNE
[s.n.52703] 3.8 09:53:31 29° WNW 09:53:57 30° NW 09:56:30 10° NNE
[s.n.52705] 3.8 09:53:37 29° WNW 09:54:03 30° NW 09:56:37 10° NNE
[s.n.52706] 3.8 09:53:44 29° WNW 09:54:10 30° NW 09:56:44 10° NNE
[s.n.52701] 3.8 09:53:51 28° WNW 09:54:17 30° NW 09:56:50 10° NNE
[s.n.52704] 3.8 09:53:58 28° WNW 09:54:24 30° NW 09:56:58 10° NNE
[s.n.52699] 3.8 09:54:04 28° WNW 09:54:31 30° NW 09:57:04 10° NNE
[s.n.52702] 3.8 09:54:11 28° WNW 09:54:38 30° NW 09:57:12 10° NNE
[s.n.52697] 3.8 09:54:18 28° WNW 09:54:45 30° NW 09:57:19 10° NNE
[s.n.52700] 3.8 09:54:24 28° WNW 09:54:52 30° NW 09:57:25 10° NNE
[s.n.52695] 3.8 09:54:31 28° WNW 09:55:00 30° NW 09:57:33 10° NNE
[s.n.52698] 3.8 09:54:38 28° WNW 09:55:06 29° NW 09:57:39 10° NNE
[s.n.52693] 3.9 09:54:45 28° WNW 09:55:13 29° NW 09:57:46 10° NNE
[s.n.52696] 3.9 09:54:51 27° WNW 09:55:20 29° NW 09:57:53 10° NNE
[s.n.52691] 3.9 09:54:58 27° WNW 09:55:28 29° NW 09:58:00 10° NNE
[s.n.52689] 3.9 09:55:05 27° WNW 09:55:35 29° NW 09:58:07 10° NNE
[s.n.52694] 3.9 09:55:12 27° WNW 09:55:42 29° NW 09:58:14 10° NNE
SL-8 Rocket 4.0 09:49:26 10° N 09:55:46 79° W 10:02:03 10° S
[s.n.52692] 3.9 09:55:19 27° WNW 09:55:49 29° NW 09:58:21 10° NNE
[s.n.52687] 3.9 09:55:25 27° WNW 09:55:56 29° NW 09:58:27 10° NNE
[s.n.52685] 3.9 09:55:32 27° WNW 09:56:03 29° NW 09:58:34 10° NNE
[s.n.52690] 3.9 09:55:39 27° WNW 09:56:10 29° NW 09:58:42 10° NNE
[s.n.52688] 3.9 09:55:46 27° WNW 09:56:17 29° NW 09:58:49 10° NNE
[s.n.52683] 3.9 09:55:52 26° WNW 09:56:24 29° NW 09:58:56 10° NNE
[s.n.52686] 3.9 09:55:59 26° WNW 09:56:31 28° NW 09:59:03 10° NNE
[s.n.52681] 3.9 09:56:06 26° WNW 09:56:39 28° NW 09:59:10 10° NNE
SL-24 DEB 4.2 09:52:24 13° S 09:56:41 81° W 10:01:26 10° N
[s.n.52679] 3.9 09:56:13 26° WNW 09:56:46 28° NW 09:59:17 10° NNE
[s.n.52684] 3.9 09:56:20 26° WNW 09:56:53 28° NW 09:59:25 10° NNE
[s.n.52682] 3.9 09:56:27 26° WNW 09:57:00 28° NW 09:59:31 10° NNE
[s.n.52677] 3.9 09:56:34 26° WNW 09:57:07 28° NW 09:59:38 10° NNE
Cosmos 1892 2.6 09:54:43 21° S 09:57:12 83° E 10:00:59 10° N
[s.n.52680] 4.0 09:56:41 26° WNW 09:57:14 28° NW 09:59:46 10° NNE
[s.n.52675] 4.0 09:56:47 26° WNW 09:57:22 28° NW 09:59:52 10° NNE
[s.n.52678] 4.0 09:56:54 26° WNW 09:57:29 28° NW 10:00:00 10° NNE
[s.n.52673] 4.0 09:57:02 25° WNW 09:57:37 28° NW 10:00:08 10° NNE
[s.n.52676] 4.0 09:57:09 25° WNW 09:57:44 28° NW 10:00:14 10° NNE
[s.n.52671] 4.0 09:57:17 25° WNW 09:57:51 27° NW 10:00:22 10° NNE
[s.n.52669] 4.0 09:57:23 25° WNW 09:57:58 27° NW 10:00:28 10° NNE
[s.n.52674] 4.0 09:57:30 25° WNW 09:58:06 27° NW 10:00:36 10° NNE
[s.n.52672] 4.0 09:57:36 25° WNW 09:58:12 27° NW 10:00:43 10° NNE
[s.n.52667] 4.0 09:57:45 25° WNW 09:58:21 27° NW 10:00:50 10° NNE
[s.n.52665] 4.0 09:57:51 25° WNW 09:58:28 27° NW 10:00:58 10° NNE
[s.n.52670] 4.0 09:57:58 25° WNW 09:58:35 27° NW 10:01:05 10° NNE
[s.n.52668] 4.0 09:58:05 24° WNW 09:58:42 27° NW 10:01:12 10° NNE
[s.n.52666] 4.0 09:58:12 24° WNW 09:58:50 27° NW 10:01:19 10° NNE
[s.n.52663] 4.0 09:58:19 24° WNW 09:58:57 27° NW 10:01:26 10° NNE
[s.n.52662] 4.0 09:58:26 24° WNW 09:59:04 27° NW 10:01:34 10° NNE
[s.n.52664] 4.0 09:58:33 24° WNW 09:59:12 27° NW 10:01:41 10° NNE
[s.n.52661] 4.0 09:58:41 24° WNW 09:59:20 26° NW 10:01:48 10° NNE
[s.n.52660] 4.1 09:58:47 24° WNW 09:59:27 27° NW 10:01:56 10° NNE
[s.n.52656] 4.1 09:58:55 24° WNW 09:59:35 26° NW 10:02:03 10° NNE
[s.n.52658] 4.1 09:59:02 24° WNW 09:59:42 26° NW 10:02:11 10° NNE
[s.n.52659] 4.1 09:59:08 24° WNW 09:59:49 26° NW 10:02:18 10° NNE
IRS-1C 4.1 09:54:30 10° NNE 09:59:52 84° ESE 10:04:46 12° SSW
[s.n.52657] 4.1 09:59:17 23° WNW 09:59:57 26° NW 10:02:25 10° NNE
SL-16 R/B 4.0 10:00:07 16° W 10:00:25 16° W 10:04:04 10° WNW
Cosmos 1023 Rocket 4.4 09:59:42 10° NNW 10:04:59 80° WSW 10:10:11 10° S
Cosmos 1943 Rocket 3.6 10:02:45 10° WNW 10:06:18 17° W 10:06:33 17° WSW
Cosmos 1624 Rocket 4.2 10:02:57 21° SW 10:06:29 59° WNW 10:11:44 10° N
Cosmos 1408 2.6 10:04:50 24° SSW 10:06:50 57° W 10:10:25 10° N
FENGYUN 3A 3.7 10:01:48 10° N 10:07:08 67° WNW 10:11:39 15° SSW
Cosmos 2263 4.1 10:03:27 10° NNW 10:09:08 73° WSW 10:14:50 10° SSE
Cosmos 2228 4.4 10:07:14 10° NW 10:10:24 20° W 10:11:19 19° WSW
ADEOS II 4.2 10:10:58 10° WNW 10:11:21 10° WNW 10:11:45 10° WNW
SEDSat Delta rocket 4.1 10:07:16 18° WSW 10:12:31 70° S 10:19:07 10° E
ARIANE 5 R/B 2.4 10:07:28 10° NNE 10:12:32 88° W 10:17:31 10° SSW
Cosmos 2056 Rocket 3.9 10:14:38 18° SW 10:18:12 45° WNW 10:23:14 10° N
Cosmos 1626 Rocket 3.5 10:15:45 10° S 10:20:09 88° W 10:24:34 10° N
Cosmos 2058 Rocket 3.0 10:16:34 10° NNW 10:20:53 62° W 10:25:09 10° S
OAO 2 Rocket 3.3 10:16:57 13° W 10:21:20 79° N 10:26:16 10° ENE
Cosmos 2369 Rocket 3.0 10:28:27 10° NW 10:33:12 29° WSW 10:37:57 10° SSW
Nadezhda 3 Rocket 4.0 10:27:08 10° S 10:33:27 86° W 10:39:46 10° N
YAOGAN 6 4.0 10:34:17 10° NNE 10:37:41 40° E 10:41:07 10° S
Cosmos 2218 Rocket 4.5 10:32:16 10° NNW 10:38:03 40° W 10:43:52 10° SSW
Cosmos 1190 Rocket 4.0 10:33:16 10° NNW 10:38:32 64° WSW 10:43:45 10° S
Cosmos 1656 Rocket 4.3 10:35:44 10° NW 10:40:27 31° WSW 10:45:12 10° SSW
CZ-4B R/B 4.4 10:36:18 10° NNE 10:41:24 53° E 10:46:32 10° S
CZ-4C R/B 3.6 10:38:54 10° SSE 10:42:24 64° ENE 10:46:06 10° N
Cosmos 1869 3.2 10:40:55 10° N 10:44:50 85° W 10:48:40 10° S
MINOTAUR 4 R/B 4.4 10:41:28 10° SSE 10:44:56 67° ENE 10:48:26 10° N
OAO 3 Copernicus 4.3 10:40:21 10° WSW 10:45:22 80° SSE 10:50:26 10° ENE
Cosmos 1758 Rocket 3.6 10:42:09 10° S 10:46:32 85° E 10:50:54 10° N
Spot 4 Rocket 4.0 10:42:30 10° N 10:47:39 81° WNW 10:52:45 10° SSW
Meteor 1-27 4.2 10:42:40 10° NNW 10:48:24 76° W 10:54:02 10° S
Cosmos 2058 4.4 10:47:37 10° SSE 10:51:25 39° E 10:55:16 10° NNE
CZ-2D R/B 4.0 10:47:46 10° N 10:51:26 36° WNW 10:55:03 10° SW
ATLAS 3B CENTAUR R/B 3.4 10:48:16 10° SSW 10:51:59 29° SSE 10:58:00 10° E
ALOS 3.6 10:48:27 10° NNW 10:52:09 24° WNW 10:55:50 10° WSW
Meteor 1-29 4.3 10:49:58 10° NNW 10:52:32 21° WNW 10:55:04 10° SW
Cosmos 676 Rocket 4.0 10:51:46 10° NNW 10:57:06 75° WSW 11:02:24 10° S
Cosmos 1821 Rocket 4.1 10:52:08 10° NNW 10:58:27 63° W 11:04:42 10° S
